Location: *
(46.1200°N, 11.2700°E)
Time: 04:40:59
(UTC+00:00)

ATLAS CENTAUR R/B - Visible Passes

Search period start: 15 June 2021 00:00
Search period end: 25 June 2021 00:00
Orbit: 472 x 671 km, 64.6° (Epoch: 13 June)

Date Brightness Start Highest point End Pass type
(mag) Time Alt. Az. Time Alt. Az. Time Alt. Az.
15 Jun 3.9 20:00:23 10° N 20:02:51 15° NNE 20:05:23 10° ENE visible
15 Jun 1.7 21:38:08 10° NNW 21:42:27 69° NE 21:44:31 31° SE visible
15 Jun 3.5 23:18:08 10° WNW 23:20:38 16° WSW 23:20:38 16° WSW visible
16 Jun 3.6 20:02:09 10° N 20:05:13 19° NE 20:08:24 10° E visible
16 Jun 1.5 21:40:15 10° NW 21:44:36 83° SW 21:46:25 36° SSE visible
16 Jun 3.9 23:21:37 10° W 23:22:33 11° WSW 23:22:33 11° WSW visible
17 Jun 3.2 20:04:01 10° NNW 20:07:33 24° NE 20:11:14 10° E visible
17 Jun 1.8 21:42:25 10° NW 21:46:43 57° WSW 21:48:22 35° S visible
18 Jun 2.8 20:05:57 10° NNW 20:09:50 32° NE 20:13:54 10° ESE visible
18 Jun 2.4 21:44:41 10° NW 21:48:47 39° WSW 21:50:22 29° SSW visible
19 Jun 2.3 20:07:56 10° NNW 20:12:04 43° NE 20:16:16 11° ESE visible
19 Jun 3.0 21:47:06 10° WNW 21:50:48 27° WSW 21:52:25 22° SSW visible
20 Jun 1.8 20:09:57 10° NNW 20:14:15 61° NE 20:18:22 12° SE visible
20 Jun 3.5 21:49:42 10° WNW 21:52:48 19° WSW 21:54:30 16° SW visible
21 Jun 1.6 20:12:03 10° NW 20:16:24 87° NE 20:20:30 13° SE visible
21 Jun 3.9 21:52:45 10° W 21:54:45 13° WSW 21:56:38 10° SW visible
22 Jun 1.8 20:14:11 10° NW 20:18:32 65° WSW 20:22:41 12° SSE visible
23 Jun 2.4 20:16:25 10° NW 20:20:36 44° WSW 20:24:56 10° S visible
24 Jun 3.0 20:18:45 10° NW 20:22:37 30° WSW 20:26:40 10° S visible
